Location: ??? ?????
(30.6482°N, 60.5850°E)
Time: 18:06:53
(UTC+00:00)

USA 186 - Pass Details

Date: 09 April 2020
Orbit: 261 x 446 km, 96.9° (Epoch: 04 June)

Event Time Altitude Azimuth Distance (km) Brightness Sun altitude
Rises 04:48:21 0° 350° (N) 1,958 4.9 40.0°
Reaches altitude 10° 04:50:43 10° 323° (NW) 1,106 3.6 40.4°
Drops below altitude 10° 04:53:25 10° 250° (WSW) 1,075 3.6 41.0°
Enters shadow 05:25:46 -66° 183° (S) 12,093 8.8 47.5°
Exits shadow 05:52:28 -58° 32° (NNE) 11,313 8.6 52.6°
Maximum altitude 15:05:19 21° 75° (ENE) 1,041 3.2 -9.9°
